THOR ABLESTAR DEB, 354

Orbit data source: Space-Track

THOR ABLESTAR DEB, 354 is space debris in LEO originally from a launch on Thu, 29 Jun 1961 UTC launched from the Air Force Eastern Test Range (AFETR). Debris objects in space refer to the collection of defunct objects orbiting the Earth. Examples of debris include non-operational satellites, rocket bodies, and fragments generated from explosions, collisions, or faulty payload assembly.

Loading next visibility...
Identifier
354, 1961-015DU
Orbit
LEO
Country
Flag of USUS
Related business
Manufacturer
Unknown
Mission
Spacecraft
Bus & Motor
Unknown
Mass
Unknown
Launch date (UTC)
1961-06-29 (64 years ago)
Launch vehicle
Unknown
Launch site
Air Force Eastern Test Range (AFETR)
Object type
Payload
Rocket body
Debris
Shape & HBR
Unknown
Radar Cross Section
Small (<0.1 m²)

Expand to show TLE details & history
Last TLE update: 22 hours ago

TLE from 22 hours ago
0 THOR ABLESTAR DEB
1 00354U 61015DU  25260.58960584  .00000017  00000-0  12209-3 0  9990
2 00354  67.0696 353.8843 0164095 142.5122 323.6268 13.49308775441099
Epoch: 2025-09-17T14:09Z
TLE epoch observation values (Epoch: 2025-09-17T14:09:01.944Z)
Latitude
62.93209°
Longitude
-90.57678°
Altitude
987.039 km
Speed
7.413 km/s
True Right ascension
07h 53m 46s
True Declination
62° 47' 49"
Sunlit
Object was in daylight at epoch
Visualization orbit readout
Latitude
Unknown
Longitude
Unknown
Altitude
Unknown
Speed
Unknown
Apparent Right ascension
Unknown
Apparent Declination
Unknown
Sunlit
N/A
Visualization observer readout
Local Sidereal Time
05:26:23
Azimuth
Unknown
Elevation
Unknown
Doppler factor
Unknown
Orbital elements
Apogee altitude
1,195.471 km
Perigee altitude
950.925 km
Semi-major axis
7,451.335 km
Eccentricity
0.01641
Inclination
67.0696°
RAAN
353.8843°
Arg. of periapsis
142.5122°
True anomaly
322.49301°
Mean anomaly
323.6268°
Eccentric anomaly
323.06179°
Mean motion
3.37436 °/min
Orbital period
106.69 mins
BSTAR
0.00012209
Loading maneuver chart data...
Computing Atmospheric mass density...

Documentation

Showing up to 5 results
|